DMSP 5D-2 F13 DEB, 40473

Orbit data source: Space-Track

DMSP 5D-2 F13 DEB, 40473 is space debris in SSO originally from a launch on Fri, 24 Mar 1995 UTC launched from the Air Force Western Test Range (AFWTR). Debris objects in space refer to the collection of defunct objects orbiting the Earth. Examples of debris include non-operational satellites, rocket bodies, and fragments generated from explosions, collisions, or faulty payload assembly.

Loading next visibility...
Identifier
40473, 1995-015BR
Orbit
SSO
Country
Flag of USUS
Related business
Manufacturer
Unknown
Mission
Spacecraft
Bus & Motor
Unknown
Mass
Unknown
Launch date (UTC)
1995-03-24 (31 years ago)
Launch vehicle
Unknown
Launch site
Air Force Western Test Range (AFWTR)
Object type
Payload
Rocket body
Debris
Shape & HBR
Unknown shape, 0.1 m
Radar Cross Section
Small (<0.1 m²)

Expand to show TLE details & history
Last TLE update: 16 hours ago

TLE from 16 hours ago
0 DMSP 5D-2 F13 DEB
1 40473U 95015BR  25288.33169878  .00002375  00000-0  15737-2 0  9990
2 40473  98.7270 137.5784 0123951 337.7894  21.7929 13.98731215538310
Epoch: 2025-10-15T07:57Z
TLE epoch observation values (Epoch: 2025-10-15T07:57:38.774Z)
Latitude
-0°
Longitude
-5.94046°
Altitude
817.473 km
Speed
7.487 km/s
True Right ascension
09h 10m 18s
True Declination
0° 00' 00"
Sunlit
Object was in daylight at epoch
Visualization orbit readout
Latitude
Unknown
Longitude
Unknown
Altitude
Unknown
Speed
Unknown
Apparent Right ascension
Unknown
Apparent Declination
Unknown
Sunlit
N/A
Visualization observer readout
Local Sidereal Time
18:34:41
Azimuth
Unknown
Elevation
Unknown
Doppler factor
Unknown
Orbital elements
Apogee altitude
985.535 km
Perigee altitude
805.223 km
Semi-major axis
7,273.516 km
Eccentricity
0.0124
Inclination
98.727°
RAAN
137.5784°
Arg. of periapsis
337.7894°
True anomaly
22.3279°
Mean anomaly
21.7929°
Eccentric anomaly
22.05963°
Mean motion
3.49886 °/min
Orbital period
102.89 mins
BSTAR
0.0015737

Documentation

Showing up to 5 results
|